Tracking 25612 objects as of 20-May-2022
HD Live streaming from Space Station
objects crossing your sky now

OBJECT K

Track OBJECT K now!
10-day predictions


NORAD ID: 43728
Int'l Code: 2018-096K
Perigee: 449.0 km
Apogee: 468.6 km
Inclination: 97.4 °
Period: 93.6 minutes
Semi major axis: 6829 km
RCS: Unknown
Launch date: November 29, 2018
Source: (TBD)
Launch site: SRIHARIKOTA (SRI)
aabbcc
Your satellite tracking list
Your tracking list is empty




NASA's NSSDC Master Catalog

Two Line Element Set (TLE):
1 43728U 18096K   22139.49362619  .00039330  00000-0  10430-2 0  9993
2 43728  97.3568 221.9228 0014355 154.7408 205.4542 15.38110488193663
Source of the keplerian elements: AFSPC